sat.trackr.live / text

‹ back to catalog

STARLINK-33625

NORAD 63327 · 2025-057W

PAYLOAD ACTIVE UNKNOWN

§ Identity

Operator
Country
US
Launch date
2025-03-18
Launch site
AFETR
Launch vehicle
Mass (kg)
RCS (m²)

Purposes: comms

External: N2YO · Heavens-Above · Gunter

§ Orbital elements

Epoch: 2026-09-20T08:00:45.883296Z

Period
94.27 min
Inclination
43.0009°
Eccentricity
0.0001386
Mean motion
15.27589067 rev/d
Perigee alt
482.1 km
Apogee alt
484.0 km
Semi-major
6,861.2 km
B*
4.0528e-4
RAAN
3.9936°
Arg perigee
259.5981°
Mean anomaly
100.4715°
Rev number
8,563

§ Raw data

STARLINK-336251 63327U 25057W   26263.33386439  .00010910  00000+0  40528-3 0  99902 63327  43.0009   3.9936 0001386 259.5981 100.4715 15.27589067 85636

JSON: /api/v1/satellites/63327 · /tle

For live sub-satellite position, see the globe view (requires WebGL).

§ Visibility from observer

Set your observer location to see the next 7 days of passes ≥ 10°. The values pass through the URL so the page stays shareable.

No JS? Fill the form by hand. The geolocation button needs JavaScript.